Home   Weather   Darmstadt   Past weeks

Flag for Germany Past Weather in Darmstadt, Hesse, Germany — Yesterday and Last 2 Weeks

Now
70 °F

Passing clouds.


Feels Like: 70 °F
Forecast: 52 / 72 °F
Wind: 5 mph from East

Location: Frankfurt-M-Flughafen Airport

Current Time: Sep 27, 2016 at 4:02:04 PM

Latest Report: Sep 27, 2016 at 3:20 PM


Visibility: N/A

Pressure: 30.30 "Hg

Humidity: 57%

Dew Point: 54 °F

Location of DarmstadtLocation

Past Weather in Darmstadt — Graph

°F

Darmstadt Temperature Yesterday

Maximum temperature yesterday: 72 °F (at 3:50 PM)
Minimum temperature yesterday: 57 °F (at 7:50 AM)
Average temperature yesterday: 64 °F

High & Low Weather Summary for the Past Weeks

 TemperatureHumidityPressure
High91 °F (Sep 13, 4:20 PM)100% (Sep 17, 6:20 AM)30.33 "Hg (Sep 17, 6:20 AM)
Low46 °F (Sep 21, 7:20 AM)26% (Sep 13, 6:20 PM)29.83 "Hg (Sep 15, 3:50 AM)
Average64 °F68%30.06 "Hg
* Reported Sep 12 2:20 PM — Sep 27 2:50 PM, Darmstadt, Weather by CustomWeather, © 2016

Note: Actual official high and low records may vary slightly from our data, if they occured in-between our weather recording intervals... More about our weather records

Advertising

Darmstadt Weather History for the Previous 24 Hours

Scroll right to see more
 ConditionsComfort  
Time TempWeatherWind HumidityBarometerVisibility
2:50 PM
Tue, Sep 27
70 °FScattered clouds.6 mph60%30.30 "HgN/A
2:20 PM72 °FPassing clouds.3 mph53%30.30 "HgN/A
1:50 PM70 °FScattered clouds.3 mph60%30.30 "HgN/A
1:20 PM68 °FScattered clouds.6 mph64%30.30 "HgN/A
12:50 PM68 °FPassing clouds.5 mph64%30.30 "HgN/A
12:20 PM66 °FScattered clouds.6 mph68%30.30 "HgN/A
11:50 AM66 °FPartly sunny.5 mph64%30.30 "HgN/A
11:20 AM64 °FPartly sunny.3 mph68%30.30 "HgN/A
10:50 AM64 °FPartly sunny.5 mph68%30.30 "HgN/A
10:20 AM64 °FPartly sunny.9 mph68%30.30 "HgN/A
9:50 AM63 °FScattered clouds.8 mph73%30.30 "HgN/A
9:20 AM61 °FBroken clouds.3 mph77%30.27 "HgN/A
8:50 AM61 °FPartly sunny.3 mph77%30.27 "HgN/A
8:20 AM59 °FPartly sunny.3 mph88%30.27 "HgN/A
7:50 AM57 °FPartly sunny.6 mph88%30.24 "HgN/A
7:20 AM57 °FPartly sunny.2 mph88%30.24 "HgN/A
6:50 AM59 °FPassing clouds.5 mph82%30.24 "HgN/A
6:20 AM59 °FPartly cloudy.6 mph82%30.24 "HgN/A
5:50 AM57 °FPartly cloudy.5 mph88%30.21 "HgN/A
5:20 AM59 °FPassing clouds.3 mph82%30.21 "HgN/A
4:50 AM59 °FPassing clouds.7 mph82%30.21 "HgN/A
4:20 AM59 °FPassing clouds.5 mph82%30.21 "HgN/A
3:50 AM57 °FPartly cloudy.3 mph88%30.21 "HgN/A
3:20 AM57 °FLight rain. Partly cloudy.3 mph88%30.21 "HgN/A
2:50 AM59 °FClear.5 mph82%30.21 "Hg10 mi
2:20 AM61 °FClear.7 mph77%30.21 "Hg10 mi
1:50 AM61 °FClear.9 mph77%30.21 "Hg10 mi
1:20 AM59 °FPassing clouds.3 mph82%30.21 "HgN/A
12:50 AM57 °FClear.5 mph88%30.21 "Hg10 mi
12:20 AM63 °FClear.6 mph73%30.21 "Hg10 mi
11:50 PM
Mon, Sep 26
63 °FClear.7 mph73%30.21 "Hg10 mi
11:20 PM63 °FClear.7 mph73%30.18 "Hg10 mi
10:50 PM64 °FClear.9 mph68%30.21 "Hg10 mi
10:20 PM64 °FPassing clouds.10 mph68%30.21 "HgN/A
9:50 PM64 °FPassing clouds.8 mph68%30.21 "HgN/A
9:20 PM64 °FPassing clouds.9 mph68%30.21 "HgN/A
8:50 PM64 °FPassing clouds.9 mph68%30.18 "HgN/A
8:20 PM66 °FPassing clouds.7 mph64%30.18 "HgN/A
7:50 PM66 °FPassing clouds.7 mph64%30.18 "HgN/A
7:20 PM68 °FPartly cloudy.6 mph60%30.18 "HgN/A
6:50 PM68 °FPartly sunny.9 mph56%30.18 "HgN/A
6:20 PM68 °FPartly sunny.9 mph56%30.18 "HgN/A
5:50 PM70 °FPartly sunny.10 mph53%30.15 "HgN/A
5:20 PM70 °FPartly sunny.8 mph53%30.15 "HgN/A
4:50 PM70 °FBroken clouds.7 mph57%30.18 "HgN/A
4:20 PM70 °FScattered clouds.6 mph57%30.18 "HgN/A
Weather by CustomWeather, © 2016

See weather overviewHow to use our weather pages